Language selection

My Weather Profile Weather Topics  | 

Lake Nipigon: Past 24 Hour Conditions

 

Welcome Island

01:00 AM EDT 28 September 2021
Disclaimer

This table is a summary of hourly weather conditions for the past 24 hours.
Please note that these observations might not always be representative of weather conditions over their associated marine area.

Date / Time
(EDT)
Wind(knots) Conditions Visibility(km) Pressure(kPa) Air tempC) Relative humidity(%) Dew pointC)
28 September 2021
1:00 NW 3 N/A N/A 101.5 11 94 10
0:00 W 4 N/A N/A 101.5 11 86 9
27 September 2021
23:00 calm N/A N/A 101.5 11 90 10
22:00 SW 5 N/A N/A 101.5 12 82 9
21:00 SW 7 N/A N/A 101.5 12 79 9
20:00 SW 10 N/A N/A 101.4 12 77 8
19:00 SW 11 N/A N/A 101.4 13 74 8
18:00 SSW 8 N/A N/A 101.4 13 74 9
17:00 SSW 9 N/A N/A 101.4 14 70 8
16:00 SSE 8 N/A N/A 101.4 14 64 7
15:00 SSE 6 N/A N/A 101.4 14 62 7
14:00 SSE 7 N/A N/A 101.5 13 63 6
13:00 ESE 4 N/A N/A 101.5 13 64 6
12:00 NNE 5 N/A N/A 101.5 12 71 7
11:00 NE 8 N/A N/A 101.4 11 75 7
10:00 NE 10 N/A N/A 101.4 11 79 7
9:00 NE 13 N/A N/A 101.3 10 74 6
8:00 NE 12 N/A N/A 101.2 10 79 7
7:00 NNE 11 N/A N/A 101.1 10 83 7
6:00 NE 10 N/A N/A 101.1 11 81 8
5:00 NE 9 N/A N/A 101.0 12 82 9
4:00 NNE 3 N/A N/A 100.9 12 81 9
3:00 N 3 N/A N/A 100.9 12 85 9
2:00 WNW 5 N/A N/A 100.8 11 83 8
1:00 NW 3 N/A N/A 100.8 12 84 10

Zoom-in to make a selection

Map of Great Lakes - Lake Superior marine weather areas Mid Superior - 45001 East Superior - 45004 West Superior - 45006 Slate Island - 45136 Lake Of the Woods - 45148 Kenora Airport Royal Island Armstrong Airport Caribou Island Marathon Airport Pukaskwa National Park Thunder Bay Airport Welcome Island Little Flatland Island Sault Ste. Marie Airport Wawa Airport
Legend:
buoy Buoy
land station Land Station

Great Lakes - Lake Superior Area

Another Region

What we are doing

Date modified: